Location: Erlenbrunn
(49.1717°N, 7.6142°E)
Time: 04:27:27
(UTC+00:00)

ERS-2 - Pass Details

Date: 25 November 2020
Orbit: 492 x 498 km, 98.6° (Epoch: 24 January)

Event Time Altitude Azimuth Distance (km) Brightness Sun altitude
Exits shadow 17:09:08 18° 32° (NNE) 1,282 3.8 -14.5°
Maximum altitude 17:11:36 47° 101° (E) 667 2.3 -14.9°
Drops below altitude 10° 17:15:08 10° 177° (S) 1,699 4.9 -15.4°
Sets 17:17:15 0° 183° (S) 2,577 6.0 -15.8°
